Location: Brachbach
(49.1847°N, 9.7240°E)
Time: 07:04:06
(UTC+00:00)

FO-29 - Pass Details

Date: 15 March 2026
Orbit: 801 x 1320 km, 98.5° (Epoch: 17 April)

Event Time Altitude Azimuth Distance (km) Brightness Sun altitude
Rises 19:16:29 0° 17° (NNE) 4,096 12.8 -18.5°
Reaches altitude 10° 19:19:09 10° 23° (NNE) 3,188 12.2 -18.9°
Maximum altitude 19:26:24 51° 98° (E) 1,590 10.2 -20.1°
Drops below altitude 10° 19:33:59 10° 172° (S) 3,340 12.0 -21.2°
Sets 19:36:49 0° 178° (S) 4,305 12.6 -21.6°
